Location: Newark
(30.1000°N, 109.4667°E)
Time: 16:55:32
(UTC+00:00)

Courier 1B Rocket - All Passes

Search period start: 21 February 2020 00:00
Search period end: 02 March 2020 00:00
Orbit: 920 x 1202 km, 28.2° (Epoch: 20 February)

Date Brightness Start Highest point End Pass type
(mag) Time Alt. Az. Time Alt. Az. Time Alt. Az.
21 Feb - 00:52:04 10° SW 00:54:16 11° SSW 00:56:29 10° SSW daylight
21 Feb - 14:24:08 10° S 14:27:15 14° SSE 14:30:21 10° ESE night (unlit)
21 Feb - 16:14:13 10° SW 16:20:00 41° SSE 16:26:00 10° E night (unlit)
21 Feb - 18:06:51 10° WSW 18:13:10 72° S 18:19:54 10° E night (unlit)
21 Feb - 20:00:05 10° W 20:06:39 72° S 20:13:43 10° ESE visible
21 Feb - 21:53:36 10° W 22:00:03 43° SSW 22:06:56 10° SE visible
21 Feb - 23:48:46 10° WSW 23:53:13 17° SSW 23:57:49 10° S daylight
22 Feb - 15:13:49 10° SW 15:19:10 30° SSE 15:24:35 10° E night (unlit)
22 Feb - 17:06:00 10° WSW 17:12:10 64° SSE 17:18:39 10° E night (unlit)
22 Feb - 18:59:09 10° W 19:05:34 76° S 19:12:25 10° E visible
22 Feb - 20:52:31 10° W 20:58:59 53° SSW 21:05:56 10° ESE visible
22 Feb - 22:46:47 10° WSW 22:52:11 24° SSW 22:57:52 10° SSE visible
23 Feb - 14:13:45 10° SSW 14:18:21 22° SSE 14:22:58 10° ESE night (unlit)
23 Feb - 16:05:14 10° WSW 16:11:15 52° SSE 16:17:25 10° E night (unlit)
23 Feb - 17:58:13 10° W 18:04:31 77° S 18:11:10 10° E night (unlit)
23 Feb - 19:51:32 10° W 19:57:56 63° SSW 20:04:48 10° ESE visible
23 Feb - 21:45:17 10° W 21:51:10 32° SSW 21:57:26 10° SE visible
23 Feb - 23:43:25 10° SW 23:44:16 10° SSW 23:45:08 10° SSW daylight
24 Feb - 13:14:13 10° S 13:17:33 15° SSE 13:20:50 10° ESE visible
24 Feb - 15:04:34 10° SW 15:10:22 41° SSE 15:16:12 10° E night (unlit)
24 Feb - 16:57:18 10° WSW 17:03:30 72° S 17:09:57 10° E night (unlit)
24 Feb - 18:50:34 10° W 18:56:53 71° S 19:03:36 10° ESE visible
24 Feb - 20:44:04 10° W 20:50:11 41° SSW 20:56:41 10° SE visible
24 Feb - 22:39:20 10° WSW 22:43:16 16° SSW 22:47:19 10° S visible
25 Feb - 14:04:04 10° SW 14:09:31 31° SSE 14:14:54 10° E visible
25 Feb - 15:56:23 10° WSW 16:02:33 64° SSE 16:08:48 10° E night (unlit)
25 Feb - 17:49:37 10° W 17:55:52 76° S 18:02:25 10° E night (unlit)
25 Feb - 19:43:00 10° W 19:49:11 51° SSW 19:55:46 10° ESE visible
25 Feb - 21:37:18 10° WSW 21:42:17 22° SSW 21:47:31 10° SSE visible
26 Feb - 13:03:51 10° SSW 13:08:41 22° SSE 13:13:24 10° ESE visible
26 Feb - 14:55:33 10° WSW 15:01:38 53° SSE 15:07:41 10° E night (unlit)
26 Feb - 16:48:39 10° W 16:54:52 76° S 17:01:15 10° E night (unlit)
26 Feb - 18:42:00 10° W 18:48:12 61° SSW 18:54:44 10° ESE night (unlit)
26 Feb - 20:35:48 10° W 20:41:20 30° SSW 20:47:11 10° SE visible
27 Feb - 12:04:07 10° S 12:07:50 16° SSE 12:11:28 10° ESE visible
27 Feb - 13:54:46 10° SW 14:00:44 42° SSE 14:06:33 10° E visible
27 Feb - 15:47:39 10° WSW 15:53:53 72° S 16:00:09 10° E night (unlit)
27 Feb - 17:41:01 10° W 17:47:13 70° S 17:53:39 10° ESE night (unlit)
27 Feb - 19:34:34 10° W 19:40:24 39° SSW 19:46:33 10° SE visible
27 Feb - 21:30:05 10° WSW 21:33:24 14° SSW 21:36:49 10° S visible
28 Feb - 11:06:21 10° SSE 11:06:57 10° SSE 11:07:34 10° SE visible
28 Feb - 12:54:09 10° SW 12:59:51 32° SSE 13:05:21 10° E visible
28 Feb - 14:46:41 10° WSW 14:52:56 65° S 14:59:06 10° E visible
28 Feb - 16:40:02 10° W 16:46:15 75° S 16:52:34 10° E night (unlit)
28 Feb - 18:33:29 10° W 18:39:29 49° SSW 18:45:44 10° SE night (unlit)
28 Feb - 20:27:54 10° WSW 20:32:29 20° SSW 20:37:14 10° SSE visible
29 Feb - 11:53:47 10° SSW 11:58:58 24° SSE 12:03:57 10° ESE visible
29 Feb - 13:45:43 10° WSW 13:52:00 54° SSE 13:58:04 10° E visible
29 Feb - 15:38:59 10° W 15:45:16 76° S 15:51:30 10° E night (unlit)
29 Feb - 17:32:27 10° W 17:38:33 60° SSW 17:44:49 10° ESE night (unlit)
29 Feb - 19:26:20 10° W 19:31:35 28° SSW 19:37:03 10° SSE visible
01 Mar - 10:53:50 10° S 10:58:04 17° SSE 11:02:09 10° ESE visible
01 Mar - 12:44:50 10° SW 12:51:04 44° SSE 12:57:00 10° E visible
01 Mar - 14:37:53 10° WSW 14:44:17 73° S 14:50:29 10° E visible
01 Mar - 16:31:24 10° W 16:37:36 69° S 16:43:50 10° ESE night (unlit)
01 Mar - 18:25:04 10° W 18:30:43 37° SSW 18:36:33 10° SE night (unlit)
01 Mar - 20:20:55 10° SW 20:23:36 13° SSW 20:26:21 10° S visible
